WA7BMK Weather Reports


Display with metric or nautical units.
time (UTC)temp
F
wind
direction
speed
MPH
gust
MPH
rain 1hr
in
rain 24hr
in
rain mn
in
humidity
%
barometer
mb
20260509141536 49 108 0.0 2.0 0.00 0.00 0.00 92 1022.6
20260509140032 46 0 0.0 0.0 0.00 0.00 0.00 92 1022.5
20260509134534 45 0 0.0 0.0 0.00 0.00 0.00 92 1022.7
20260509133031 44 0 0.0 0.0 0.00 0.00 0.00 91 1022.8
20260509131534 44 0 0.0 0.0 0.00 0.00 0.00 91 1022.7
20260509130032 44 0 0.0 0.0 0.00 0.00 0.00 91 1022.7
20260509124540 44 0 0.0 0.0 0.00 0.00 0.00 91 1022.7
20260509123039 45 0 0.0 0.0 0.00 0.00 0.00 90 1022.6
20260509121546 45 0 0.0 0.0 0.00 0.00 0.00 91 1022.5
20260509120030 45 0 0.0 0.0 0.00 0.00 0.00 90 1022.8
20260509114552 45 0 0.0 0.0 0.00 0.00 0.00 90 1022.8
20260509113033 45 0 0.0 0.0 0.00 0.00 0.00 90 1022.8
20260509111535 46 0 0.0 0.0 0.00 0.00 0.00 89 1022.8
20260509110034 46 0 0.0 0.0 0.00 0.00 0.00 89 1022.9
20260509104530 47 0 0.0 0.0 0.00 0.00 0.00 88 1022.9
20260509103036 48 0 0.0 0.0 0.00 0.00 0.00 88 1023.0
20260509101537 48 0 0.0 0.0 0.00 0.00 0.00 88 1023.1
20260509100036 49 0 0.0 0.0 0.00 0.00 0.00 89 1023.1
20260509094544 49 0 0.0 0.0 0.00 0.00 0.00 88 1023.3
20260509093032 49 0 0.0 0.0 0.00 0.00 0.00 88 1023.4
20260509091535 49 0 0.0 0.0 0.00 0.00 0.00 88 1023.5
20260509090054 49 0 0.0 0.0 0.00 0.00 0.00 88 1023.5
20260509084539 49 0 0.0 0.0 0.00 0.00 0.00 88 1023.6
20260509083046 49 0 0.0 0.0 0.00 0.00 0.00 88 1023.6
20260509081531 49 0 0.0 0.0 0.00 0.00 0.00 88 1023.6
20260509080052 49 0 0.0 0.0 0.00 0.00 0.00 87 1023.6
20260509074537 49 0 0.0 0.0 0.00 0.00 0.00 87 1023.6
20260509073031 49 0 0.0 0.0 0.00 0.00 0.00 86 1023.6
20260509071532 49 0 0.0 0.0 0.00 0.00 0.00 86 1023.4
20260509070038 49 0 0.0 0.0 0.00 0.00 0.00 86 1023.5
20260509064536 49 0 0.0 0.0 0.00 0.00 0.00 84 1023.5
20260509063035 50 0 0.0 0.0 0.00 0.00 0.00 83 1023.4
20260509061531 51 0 0.0 0.0 0.00 0.00 0.00 82 1023.2
20260509060037 51 0 0.0 0.0 0.00 0.00 0.00 82 1023.2
20260509054536 51 0 0.0 0.0 0.00 0.00 0.00 82 1023.2
20260509053043 51 0 0.0 0.0 0.00 0.00 0.00 81 1023.2
20260509051539 51 0 0.0 0.0 0.00 0.00 0.00 80 1023.1
20260509050049 52 0 0.0 0.0 0.00 0.00 0.00 79 1023.1
20260509044537 52 0 0.0 0.0 0.00 0.00 0.00 78 1023.0
20260509043043 53 0 0.0 0.0 0.00 0.00 0.00 78 1023.0
20260509041538 53 0 0.0 4.0 0.00 0.00 0.00 77 1022.9
20260509040039 53 196 0.0 3.0 0.00 0.00 0.00 76 1022.7
20260509034535 54 0 0.0 2.0 0.00 0.00 0.00 75 1022.6
20260509033039 55 0 0.0 2.0 0.00 0.00 0.00 73 1022.5
20260509031538 55 329 0.0 4.0 0.00 0.00 0.00 72 1022.4
20260509030036 56 316 0.0 4.0 0.00 0.00 0.00 70 1022.2
20260509024539 57 0 0.0 6.0 0.00 0.00 0.00 69 1022.0
20260509023031 58 247 2.0 9.0 0.00 0.00 0.00 68 1022.0
20260509021537 59 332 1.0 8.0 0.00 0.00 0.00 65 1022.0
20260509020038 61 0 0.0 5.0 0.00 0.00 0.00 64 1021.9
20260509014536 61 330 2.0 5.0 0.00 0.00 0.00 62 1021.9
20260509013041 60 329 0.0 6.0 0.00 0.00 0.00 63 1021.9
20260509011538 61 292 1.0 8.0 0.00 0.00 0.00 60 1021.9
20260509010037 62 5 2.0 10.0 0.00 0.00 0.00 59 1021.9
20260509004546 61 211 2.0 13.0 0.00 0.00 0.00 59 1021.9
20260509003036 61 342 2.0 7.0 0.00 0.00 0.00 60 1022.0
20260509001533 62 260 2.0 10.0 0.00 0.00 0.00 58 1022.1
20260509000041 63 281 2.0 7.0 0.00 0.00 0.00 56 1021.9
20260508234537 62 192 1.0 8.0 0.00 0.00 0.00 57 1021.9
20260508233036 62 87 1.0 6.0 0.00 0.00 0.00 59 1021.9
20260508231543 62 215 1.0 11.0 0.00 0.00 0.00 56 1021.7
20260508230036 63 315 2.0 10.0 0.00 0.00 0.00 58 1021.8
20260508224555 63 0 2.0 6.0 0.00 0.00 0.00 54 1021.9
20260508223036 62 148 2.0 10.0 0.00 0.00 0.00 58 1021.7
20260508221545 62 290 3.0 8.0 0.00 0.00 0.00 56 1021.8
20260508220036 61 195 2.0 10.0 0.00 0.00 0.00 56 1021.6
20260508214540 61 236 2.0 8.0 0.00 0.00 0.00 57 1021.8
20260508213038 60 0 4.0 15.0 0.00 0.00 0.00 59 1021.9
20260508211537 60 208 3.0 9.0 0.00 0.00 0.00 58 1021.9
20260508210037 60 148 2.0 10.0 0.00 0.00 0.00 60 1022.1
20260508204536 59 331 2.0 9.0 0.00 0.00 0.00 62 1021.6
20260508203036 58 181 3.0 11.0 0.00 0.00 0.00 61 1021.6
20260508201540 58 179 2.0 9.0 0.00 0.00 0.00 62 1021.7
20260508200045 57 209 1.0 11.0 0.00 0.00 0.00 63 1021.7
20260508194536 57 165 3.0 12.0 0.00 0.00 0.00 63 1021.6
20260508193046 56 217 2.0 13.0 0.00 0.00 0.00 65 1021.6
20260508191539 55 0 3.0 8.0 0.00 0.00 0.00 65 1021.6
20260508190038 55 308 4.0 13.0 0.00 0.00 0.00 65 1021.7
20260508184537 54 360 3.0 11.0 0.00 0.00 0.00 67 1021.6
20260508183044 54 269 4.0 9.0 0.00 0.00 0.00 67 1021.7
20260508181538 53 0 2.0 11.0 0.00 0.00 0.00 68 1021.6
20260508180033 53 222 3.0 10.0 0.00 0.00 0.00 70 1021.3
20260508174538 54 186 2.0 10.0 0.00 0.00 0.00 68 1021.1
20260508173038 54 250 3.0 11.0 0.00 0.00 0.00 69 1020.8
20260508171537 53 338 3.0 10.0 0.00 0.00 0.00 71 1020.8
20260508170033 53 219 4.0 10.0 0.00 0.00 0.00 72 1020.5
20260508164535 52 201 2.0 8.0 0.00 0.00 0.00 73 1020.2
20260508163033 52 187 1.0 7.0 0.00 0.00 0.00 74 1020.2
20260508161539 52 187 1.0 9.0 0.00 0.00 0.00 74 1020.0
20260508160039 52 166 2.0 9.0 0.00 0.00 0.00 74 1019.9
20260508154535 51 244 1.0 8.0 0.00 0.00 0.00 75 1019.8
20260508153035 51 208 2.0 8.0 0.00 0.00 0.00 77 1019.9
20260508151544 50 360 2.0 9.0 0.00 0.00 0.00 79 1020.2
20260508150041 49 360 2.0 6.0 0.00 0.00 0.00 82 1020.1
20260508144543 48 360 1.0 5.0 0.00 0.00 0.00 84 1020.1
20260508143041 48 195 2.0 8.0 0.00 0.00 0.00 84 1019.9